Погода в Авнюгском

Россия / Архангельская область     61°59′42″N   45°05′17″E
темп.,
°C
ветер,
м/с
пор.,
м/с
влажн.,
%
обл.,
%
осадки,
мм/ч
давл.,
гПа
погр.,
м
1 марта, пн
пн100:00−11ююз2297100 0.1 101624
03:00−10ююз2496100 0.1 101589
06:00−7ююз4109396 0.0 1012333
09:00−5юз4119498 0.3 1009574
12:00−2юз51096100 1.4 1005609
15:000юз51198100 3.4 1002688
18:00+1зюз41199100 3.3 997496
21:00+1з41099100 6.0 995472
2 марта, вт
вт200:000сз4998100 0.6 993533
03:000зсз4994100 0.7 993598
06:00−2зсз3995100 0.1 993463
09:00−2зсз41093100 0.1 994599
12:00−1зсз478897 0.1 993834
15:00−1з489399 0.3 994691
18:00−2зсз3997100 0.4 994456
21:00−3сз51195100 1.0 997774
3 марта, ср
ср300:00−5сз51191100 0.5 998754
03:00−8зсз41192100 0.5 1000635
06:00−8зсз51292100 0.1 999715
09:00−8зсз51190100 0.2 999751
12:00−7зсз51091100 0.3 998871
15:00−5зсз61189100 0.5 999945
18:00−6зсз51290100 0.1 999861
21:00−8зсз4119495 0.1 999532
4 марта, чт
чт400:00−9зсз3895100 0.1 998286
03:00−13зюз229795 0.1 99727
06:00−14юв129796 0.0 99420
09:00−11вюв369598 0.0 990201
12:00−8в5994100 0.3 987415
15:00−6всв4895100 1.6 986660
18:00−8ссв51094100 1.3 986598
21:00−11с51193100 2.1 988490
5 марта, пт
пт500:00−14ссз51093100 0.4 990498
03:00−15сз51093100 0.7 994502
06:00−16сз41093100 0.1 997460
09:00−15сз4894100 0.3 999419
12:00−14зсз4792100 0.1 1002475
15:00−14зсз4691100 0.2 1004482
18:00−17зсз3796100 0.0 1006208
21:00−21зсз239883 0.0 100876